GLENN Weather Reports


time (UTC)temp
F
wind
direction
speed
knots
gust
knots
rain 1hr
in
rain 24hr
in
rain mn
in
humidity
%
barometer
mb
20260903194517 71 128 1.7 7.0 0.00 0.00 0.00 34 1012.3
20260903193010 72 323 1.7 7.0 0.00 0.00 0.00 31 1012.4
20260903191512 70 318 5.2 9.6 0.00 0.00 0.00 32 1012.7
20260903190012 69 319 1.7 7.8 0.00 0.00 0.00 33 1012.7
20260903184513 69 237 2.6 7.8 0.00 0.00 0.00 31 1013.0
20260903183011 70 360 2.6 7.0 0.00 0.00 0.00 33 1013.0
20260903181512 68 53 1.7 7.8 0.00 0.00 0.00 35 1013.0
20260903180016 66 41 1.7 4.3 0.00 0.00 0.00 35 1013.3
20260903174514 66 341 1.7 2.6 0.00 0.00 0.00 33 1013.2
20260903173019 67 291 0.9 6.1 0.00 0.00 0.00 34 1013.3
20260903171516 67 327 1.7 6.1 0.00 0.00 0.00 33 1013.3
20260903170014 66 336 2.6 5.2 0.00 0.00 0.00 34 1013.2
20260903164517 66 269 2.6 7.8 0.00 0.00 0.00 33 1013.4
20260903163003 66 192 3.5 6.1 0.00 0.00 0.00 33 1013.4
20260903161505 65 199 4.3 7.8 0.00 0.00 0.00 36 1013.4
20260903160014 64 202 3.5 8.7 0.00 0.00 0.00 35 1013.3
20260903154509 64 179 2.6 7.0 0.00 0.00 0.00 37 1013.3
20260903153009 63 179 3.5 7.0 0.00 0.00 0.00 37 1013.4
20260903151504 62 194 4.3 8.7 0.00 0.00 0.00 38 1013.5
20260903150011 62 154 5.2 8.7 0.00 0.00 0.00 38 1013.5
20260903144510 62 162 5.2 7.8 0.00 0.00 0.00 38 1013.6
20260903143020 59 151 5.2 8.7 0.00 0.00 0.00 40 1013.7
20260903141512 59 148 4.3 7.8 0.00 0.00 0.00 40 1013.4
20260903140015 58 136 5.2 7.8 0.00 0.00 0.00 41 1013.5
20260903134511 56 149 5.2 8.7 0.00 0.00 0.00 42 1013.3
20260903133015 57 167 5.2 9.6 0.00 0.00 0.00 41 1013.4
20260903131512 57 165 4.3 8.7 0.00 0.00 0.00 40 1013.2
20260903130017 56 169 0.9 4.3 0.00 0.00 0.00 42 1012.8
20260903124509 56 221 0.9 2.6 0.00 0.00 0.00 40 1012.6
20260903123012 56 73 0.0 1.7 0.00 0.00 0.00 41 1012.3
20260903121528 56 89 0.0 2.6 0.00 0.00 0.00 41 1012.3
20260903120018 57 225 0.0 5.2 0.00 0.00 0.00 40 1012.2
20260903114517 57 312 1.7 3.5 0.00 0.00 0.00 38 1012.1
20260903113022 57 279 1.7 5.2 0.00 0.00 0.00 38 1012.0
20260903111519 56 44 0.9 2.6 0.00 0.00 0.00 41 1011.8
20260903110019 57 35 0.0 0.0 0.00 0.00 0.00 39 1011.6
20260903104520 55 88 2.6 4.3 0.00 0.00 0.00 40 1011.3
20260903103008 54 96 0.9 3.5 0.00 0.00 0.00 50 1011.0
20260903101513 54 68 0.9 6.1 0.00 0.00 0.00 51 1011.1
20260903100022 57 254 1.7 3.5 0.00 0.00 0.00 41 1010.9
20260903094522 58 90 1.7 2.6 0.00 0.00 0.00 37 1010.7
20260903093027 56 86 2.6 2.6 0.00 0.00 0.00 41 1010.7
20260903091517 55 84 0.0 2.6 0.00 0.00 0.00 45 1011.0
20260903090016 56 88 0.9 1.7 0.00 0.00 0.00 44 1010.9
20260903084525 56 97 2.6 5.2 0.00 0.00 0.00 39 1010.8
20260903083028 52 112 0.9 2.6 0.00 0.00 0.00 51 1011.0
20260903081525 52 119 1.7 2.6 0.00 0.00 0.00 54 1011.1
20260903080013 56 277 0.0 1.7 0.00 0.00 0.00 45 1010.9
20260903074518 55 78 1.7 4.3 0.00 0.00 0.00 47 1010.8
20260903073005 54 73 1.7 3.5 0.00 0.00 0.00 47 1011.1
20260903071505 54 90 1.7 5.2 0.00 0.00 0.00 50 1011.1
20260903070011 55 94 0.0 2.6 0.00 0.00 0.00 48 1011.0
20260903064526 53 107 1.7 5.2 0.00 0.00 0.00 55 1011.0
20260903063005 53 123 0.0 1.7 0.00 0.00 0.00 52 1011.1
20260903061506 53 140 1.7 4.3 0.00 0.00 0.00 55 1011.0
20260903060015 57 190 1.7 2.6 0.00 0.00 0.00 47 1010.8
20260903054514 55 84 1.7 3.5 0.00 0.00 0.00 47 1011.0
20260903053018 56 69 0.9 3.5 0.00 0.00 0.00 47 1011.3
20260903051503 56 155 1.7 3.5 0.00 0.00 0.00 49 1011.5
20260903050009 57 271 0.0 1.7 0.00 0.00 0.00 45 1011.4
20260903044512 57 140 0.0 3.5 0.00 0.00 0.00 43 1011.2
20260903043018 57 88 1.7 3.5 0.00 0.00 0.00 42 1011.2
20260903041529 59 321 0.0 1.7 0.00 0.00 0.00 41 1011.5
20260903040008 59 338 1.7 2.6 0.00 0.00 0.00 41 1011.7
20260903034508 59 133 1.7 3.5 0.00 0.00 0.00 42 1011.5
20260903033016 60 109 1.7 2.6 0.00 0.00 0.00 38 1011.5
20260903031518 60 109 2.6 5.2 0.00 0.00 0.00 40 1011.4
20260903030030 60 94 0.0 1.7 0.00 0.00 0.00 40 1011.3
20260903024506 60 80 1.7 2.6 0.00 0.00 0.00 43 1011.1
20260903023012 62 71 1.7 3.5 0.00 0.00 0.00 40 1011.1
20260903021522 62 88 1.7 2.6 0.00 0.00 0.00 40 1011.1
20260903020044 61 80 0.0 1.7 0.00 0.00 0.00 44 1011.2
20260903014528 63 53 0.0 0.0 0.00 0.00 0.00 43 1011.2
20260903013008 63 33 0.0 0.0 0.00 0.00 0.00 42 1010.9
20260903011516 65 60 0.0 2.6 0.00 0.00 0.00 39 1010.9
20260903010024 66 76 0.0 7.0 0.00 0.00 0.00 37 1010.9
20260903004529 67 360 3.5 7.8 0.00 0.00 0.00 35 1011.0
20260903003028 67 352 0.9 6.1 0.00 0.00 0.00 36 1010.9
20260903001514 69 327 3.5 8.7 0.00 0.00 0.00 36 1010.9
20260903000016 70 287 1.7 9.6 0.00 0.00 0.00 34 1010.8
20260902234526 72 340 4.3 8.7 0.00 0.00 0.00 34 1010.7
20260902233029 73 341 1.7 11.3 0.00 0.00 0.00 31 1010.6
20260902231532 77 282 10.4 18.2 0.00 0.00 0.00 15 1010.6
20260902230018 75 330 2.6 4.3 0.00 0.00 0.00 29 1010.5
20260902224524 78 26 2.6 16.5 0.00 0.00 0.00 27 1010.5
20260902223004 79 233 10.4 20.0 0.00 0.00 0.00 16 1010.0
20260902221509 79 221 10.4 22.6 0.00 0.00 0.00 18 1009.7
20260902220021 78 198 20.0 31.3 0.00 0.00 0.00 16 1009.4
20260902214523 78 224 14.8 26.9 0.00 0.00 0.00 16 1009.6
20260902213004 80 201 11.3 25.2 0.00 0.00 0.00 17 1009.4
20260902211505 79 189 14.8 25.2 0.00 0.00 0.00 16 1009.1
20260902210018 79 192 17.4 30.4 0.00 0.00 0.00 16 1009.1
20260902204535 79 194 14.8 21.7 0.00 0.00 0.00 18 1009.2
20260902203026 80 190 15.6 28.7 0.00 0.00 0.00 19 1009.1
20260902201517 78 160 19.1 28.7 0.00 0.00 0.00 20 1009.2
20260902200009 79 157 10.4 22.6 0.00 0.00 0.00 25 1009.2